Home   Weather   Pittsburgh   Past weeks

Flag for USA Past Weather in Pittsburgh, Pennsylvania, USA — Yesterday and Last 2 Weeks

Now
62 °F

Fog.


Feels Like: 62 °F
Forecast: 60 / 84 °F
Wind: No wind

Location: Allegheny County Airport

Current Time: Aug 20, 2017 at 9:56:37 am

Latest Report: Aug 20, 2017 at 8:53 am


Visibility: 0 mi

Pressure: 30.14 "Hg

Humidity: 96%

Dew Point: 61 °F

Location of PittsburghLocation

Past Weather in Pittsburgh — Graph

°F

Pittsburgh Temperature Yesterday

Maximum temperature yesterday: 82 °F (at 4:27 pm)
Minimum temperature yesterday: 63 °F (at 5:21 pm)
Average temperature yesterday: 70 °F

High & Low Weather Summary for the Past Weeks

 TemperatureHumidityPressure
High86 °F (Aug 17, 1:53 pm)96% (Aug 9, 8:20 am)30.26 "Hg (Aug 9, 8:20 am)
Low53 °F (Aug 9, 6:15 am)33% (Aug 9, 1:53 pm)29.80 "Hg (Aug 18, 4:53 pm)
Average69 °F73%30.02 "Hg
* Reported Aug 5 7:32 am — Aug 20 7:53 am, Pittsburgh. Weather by CustomWeather, © 2017

Note: Actual official high and low records may vary slightly from our data, if they occured in-between our weather recording intervals... More about our weather records

Advertising

Pittsburgh Weather History for the Previous 24 Hours

Scroll right to see more
 ConditionsComfort  
Time TempWeatherWind HumidityBarometerVisibility
7:53 am
Sun, Aug 20
61 °FFog.No wind93%30.13 "Hg0 mi
6:53 am60 °FFog.No wind93%30.12 "Hg0 mi
6:10 am59 °FFog.3 mph93%30.10 "Hg0 mi
6:00 am58 °FFog.6 mph93%30.10 "Hg0 mi
5:39 am59 °FFog.No wind90%30.09 "Hg0 mi
5:19 am59 °FFog.No wind93%30.09 "Hg0 mi
4:53 am59 °FFog.No wind93%30.09 "Hg0 mi
4:15 am59 °FFog.No wind90%30.08 "Hg0 mi
4:08 am60 °FFog.5 mph90%30.08 "Hg1 mi
3:38 am61 °FFog.No wind93%30.07 "Hg4 mi
3:06 am60 °FFog.6 mph93%30.07 "Hg0 mi
2:42 am62 °FFog.3 mph90%30.07 "Hg1 mi
2:35 am62 °FFog.3 mph90%30.07 "Hg1 mi
2:05 am61 °FFog.3 mph93%30.07 "Hg0 mi
1:41 am61 °FFog.5 mph93%30.06 "Hg1 mi
1:36 am62 °FFog.5 mph90%30.06 "Hg1 mi
12:53 am63 °FFog.No wind90%30.04 "Hg4 mi
11:53 pm
Sat, Aug 19
64 °FClear.6 mph87%30.03 "Hg7 mi
10:53 pm63 °FClear.6 mph90%30.01 "Hg8 mi
9:53 pm64 °FClear.5 mph87%29.99 "Hg10 mi
8:53 pm64 °FClear.6 mph87%29.98 "Hg10 mi
7:53 pm66 °FScattered clouds.3 mph81%29.96 "Hg10 mi
6:53 pm66 °FPassing clouds.7 mph84%29.96 "Hg10 mi
5:53 pm65 °FLight rain. Partly sunny.6 mph85%29.93 "Hg10 mi
5:36 pm64 °FThundershowers. Fog.5 mph87%29.93 "Hg5 mi
5:21 pm63 °FThunderstorms. Fog.3 mph87%29.95 "Hg3 mi
4:53 pm67 °FThunderstorms. More clouds than sun.17 mph68%29.94 "Hg10 mi
4:27 pm82 °FThundershowers. Broken clouds.10 mph48%29.90 "Hg10 mi
3:53 pm81 °FScattered clouds.14 mph49%29.88 "Hg10 mi
2:53 pm81 °FPartly sunny.14 mph51%29.90 "Hg10 mi
1:53 pm81 °FBroken clouds.14 mph54%29.91 "Hg10 mi
12:53 pm79 °FPassing clouds.9 mph58%29.93 "Hg10 mi
11:53 am76 °FSunny.8 mph60%29.93 "Hg10 mi
10:53 am74 °FPassing clouds.10 mph69%29.95 "Hg10 mi
9:53 am75 °FPassing clouds.10 mph66%29.94 "Hg10 mi
Weather by CustomWeather, © 2017

See weather overviewHow to use our weather pages